• In Austria
  • List of Countries
  • For 7 days
  • Water Temperature
  • Satellite Maps
  • Weather Map
  • News
  • Weather Widgets
  • user-avatar
    Login

    Hourly Weather Skoki

    Today, 17 July, Tuesday

    Time Temperature Precipitation Wind Pressure Humidity
    00:00 +19°C° 0.2 mm 2 mps 752 mmHg 87%
    01:00 +19°C° 0 mm 2 mps 752 mmHg 90%
    02:00 +19°C° 0.9 mm 2 mps 752 mmHg 92%
    03:00 +18°C° 0.9 mm 2 mps 751 mmHg 93%
    04:00 +18°C° 0.9 mm 2 mps 751 mmHg 94%
    05:00 +19°C° 0.5 mm 2 mps 751 mmHg 92%
    06:00 +19°C° 0.5 mm 3 mps 751 mmHg 91%
    07:00 +19°C° 0.5 mm 3 mps 751 mmHg 89%
    08:00 +20°C° 0.6 mm 3 mps 751 mmHg 87%
    09:00 +21°C° 0.6 mm 4 mps 751 mmHg 85%
    10:00 +21°C° 0.6 mm 4 mps 751 mmHg 83%
    11:00 +21°C° 0.9 mm 4 mps 751 mmHg 85%
    12:00 +21°C° 0.9 mm 4 mps 751 mmHg 86%
    13:00 +21°C° 0.9 mm 4 mps 751 mmHg 87%
    14:00 +21°C° 0.9 mm 4 mps 751 mmHg 87%
    15:00 +21°C° 0.9 mm 4 mps 751 mmHg 87%
    16:00 +21°C° 0.9 mm 4 mps 751 mmHg 87%
    17:00 +20°C° 0.7 mm 4 mps 751 mmHg 88%
    18:00 +20°C° 0.7 mm 4 mps 751 mmHg 89%
    19:00 +20°C° 0.7 mm 4 mps 751 mmHg 90%
    20:00 +20°C° 0.2 mm 4 mps 751 mmHg 91%
    21:00 +19°C° 0.2 mm 3 mps 751 mmHg 92%
    22:00 +19°C° 0.2 mm 3 mps 751 mmHg 93%
    23:00 +19°C° 0.1 mm 3 mps 751 mmHg 94%

    Tomorrow, 18 July, Wednesday

    Time Temperature Precipitation Wind Pressure Humidity
    00:00 +19°C° 0.1 mm 3 mps 751 mmHg 95%
    01:00 +18°C° 0.1 mm 4 mps 751 mmHg 96%
    02:00 +18°C° 0.3 mm 4 mps 751 mmHg 96%
    03:00 +18°C° 0.3 mm 4 mps 751 mmHg 96%
    04:00 +18°C° 0.3 mm 4 mps 751 mmHg 96%
    05:00 +19°C° 1.6 mm 4 mps 751 mmHg 95%
    06:00 +19°C° 1.6 mm 5 mps 751 mmHg 94%
    07:00 +19°C° 1.6 mm 5 mps 751 mmHg 93%
    08:00 +19°C° 2.8 mm 5 mps 751 mmHg 93%
    09:00 +19°C° 2.8 mm 5 mps 752 mmHg 93%
    10:00 +19°C° 2.8 mm 5 mps 752 mmHg 93%
    11:00 +20°C° 1.5 mm 5 mps 752 mmHg 92%
    12:00 +20°C° 1.5 mm 5 mps 752 mmHg 91%
    13:00 +20°C° 1.5 mm 5 mps 752 mmHg 91%
    14:00 +20°C° 0.6 mm 5 mps 753 mmHg 90%
    15:00 +21°C° 0.6 mm 5 mps 753 mmHg 89%
    16:00 +21°C° 0.6 mm 4 mps 753 mmHg 88%
    17:00 +21°C° 0.5 mm 4 mps 753 mmHg 89%
    18:00 +20°C° 0.5 mm 4 mps 753 mmHg 90%
    19:00 +20°C° 0.5 mm 4 mps 753 mmHg 91%
    20:00 +19°C° 0.6 mm 3 mps 753 mmHg 92%
    21:00 +19°C° 0.6 mm 3 mps 754 mmHg 93%
    22:00 +19°C° 0.6 mm 3 mps 754 mmHg 94%
    23:00 +19°C° 0.7 mm 3 mps 754 mmHg 94%

    Day after tomorrow, 19 July, Thursday

    Time Temperature Precipitation Wind Pressure Humidity
    00:00 +19°C° 0.7 mm 3 mps 754 mmHg 94%
    01:00 +18°C° 0.7 mm 4 mps 754 mmHg 93%
    02:00 +18°C° 0.4 mm 4 mps 754 mmHg 93%
    03:00 +18°C° 0.4 mm 4 mps 754 mmHg 93%
    04:00 +18°C° 0.4 mm 4 mps 754 mmHg 93%
    05:00 +18°C° 0.2 mm 4 mps 754 mmHg 92%
    06:00 +18°C° 0.2 mm 4 mps 754 mmHg 91%
    07:00 +19°C° 0.2 mm 4 mps 754 mmHg 90%
    08:00 +19°C° 0.4 mm 4 mps 754 mmHg 87%
    09:00 +20°C° 0.4 mm 4 mps 754 mmHg 84%
    10:00 +21°C° 0.4 mm 5 mps 754 mmHg 82%
    11:00 +21°C° 0.6 mm 5 mps 755 mmHg 82%
    12:00 +21°C° 0.6 mm 5 mps 755 mmHg 83%
    13:00 +21°C° 0.6 mm 5 mps 755 mmHg 83%
    14:00 +21°C° 0.2 mm 5 mps 755 mmHg 83%
    15:00 +21°C° 0.2 mm 5 mps 755 mmHg 83%
    16:00 +21°C° 0.2 mm 5 mps 755 mmHg 83%
    17:00 +20°C° 0.1 mm 5 mps 755 mmHg 85%
    18:00 +19°C° 0.1 mm 4 mps 755 mmHg 87%
    19:00 +19°C° 0.1 mm 4 mps 755 mmHg 89%
    20:00 +18°C° 0 mm 4 mps 755 mmHg 90%
    21:00 +18°C° 0 mm 3 mps 755 mmHg 91%
    22:00 +18°C° 0 mm 3 mps 755 mmHg 92%
    23:00 +17°C° 0.1 mm 3 mps 755 mmHg 92%

    20 July, Friday

    Time Temperature Precipitation Wind Pressure Humidity
    00:00 +17°C° 0.1 mm 3 mps 755 mmHg 91%
    01:00 +17°C° 0.1 mm 3 mps 755 mmHg 91%
    02:00 +17°C° 0 mm 3 mps 755 mmHg 91%
    03:00 +16°C° 0 mm 2 mps 755 mmHg 91%
    04:00 +16°C° 0 mm 2 mps 755 mmHg 91%
    05:00 +17°C° 0 mm 3 mps 755 mmHg 88%
    06:00 +18°C° 0 mm 3 mps 755 mmHg 84%
    07:00 +18°C° 0 mm 3 mps 755 mmHg 81%
    08:00 +20°C° 0 mm 3 mps 755 mmHg 74%
    09:00 +22°C° 0 mm 3 mps 755 mmHg 68%
    10:00 +24°C° 0 mm 3 mps 755 mmHg 62%
    11:00 +25°C° 0 mm 3 mps 755 mmHg 59%
    12:00 +26°C° 0 mm 4 mps 755 mmHg 56%
    13:00 +27°C° 0 mm 4 mps 755 mmHg 53%
    14:00 +27°C° 0 mm 4 mps 755 mmHg 53%
    15:00 +27°C° 0 mm 4 mps 755 mmHg 53%
    16:00 +27°C° 0 mm 4 mps 754 mmHg 53%
    17:00 +26°C° 0 mm 4 mps 754 mmHg 58%
    18:00 +25°C° 0 mm 3 mps 754 mmHg 62%
    19:00 +24°C° 0 mm 3 mps 754 mmHg 67%
    20:00 +21°C° 0 mm 3 mps 754 mmHg 71%
    21:00 +19°C° 0 mm 2 mps 755 mmHg 75%
    22:00 +18°C° 0 mm 2 mps 755 mmHg 79%
    23:00 +17°C° 0 mm 2 mps 755 mmHg 78%

    21 July, Saturday

    Time Temperature Precipitation Wind Pressure Humidity
    00:00 +16°C° 0 mm 2 mps 755 mmHg 77%
    01:00 +16°C° 0 mm 1 mps 754 mmHg 76%
    02:00 +15°C° 0 mm 1 mps 754 mmHg 76%
    03:00 +15°C° 0 mm 1 mps 754 mmHg 76%
    04:00 +14°C° 0 mm 1 mps 754 mmHg 76%
    05:00 +16°C° 0 mm 2 mps 754 mmHg 72%
    06:00 +17°C° 0 mm 2 mps 754 mmHg 69%
    07:00 +19°C° 0 mm 2 mps 754 mmHg 65%
    08:00 +20°C° 0 mm 2 mps 755 mmHg 60%
    09:00 +23°C° 0 mm 2 mps 755 mmHg 54%
    10:00 +25°C° 0 mm 3 mps 755 mmHg 49%
    11:00 +25°C° 0 mm 3 mps 755 mmHg 47%
    12:00 +26°C° 0 mm 3 mps 754 mmHg 44%
    13:00 +27°C° 0 mm 3 mps 754 mmHg 42%
    14:00 +27°C° 0 mm 3 mps 754 mmHg 43%
    15:00 +27°C° 0 mm 3 mps 754 mmHg 45%
    16:00 +27°C° 0 mm 3 mps 754 mmHg 46%
    17:00 +26°C° 0 mm 3 mps 754 mmHg 52%
    18:00 +25°C° 0 mm 3 mps 754 mmHg 58%
    19:00 +24°C° 0 mm 2 mps 754 mmHg 64%
    20:00 +21°C° 0 mm 2 mps 754 mmHg 68%
    21:00 +20°C° 0 mm 2 mps 754 mmHg 73%
    22:00 +18°C° 0 mm 2 mps 754 mmHg 78%
    23:00 +17°C° 0 mm 2 mps 754 mmHg 78%

    22 July, Sunday

    Time Temperature Precipitation Wind Pressure Humidity
    00:00 +18°C° 0 mm 1 mps 755 mmHg 79%
    01:00 +16°C° 0 mm 1 mps 755 mmHg 79%
    02:00 +16°C° 0 mm 1 mps 755 mmHg 80%
    03:00 +16°C° 0 mm 1 mps 754 mmHg 80%
    04:00 +15°C° 0 mm 1 mps 754 mmHg 80%
    05:00 +18°C° 0 mm 1 mps 755 mmHg 76%
    06:00 +19°C° 0 mm 1 mps 755 mmHg 71%
    07:00 +21°C° 0 mm 1 mps 755 mmHg 66%
    08:00 +21°C° 0 mm 2 mps 755 mmHg 63%
    09:00 +23°C° 0 mm 2 mps 755 mmHg 59%
    10:00 +24°C° 0 mm 2 mps 755 mmHg 56%
    11:00 +25°C° 0.2 mm 3 mps 755 mmHg 55%
    12:00 +26°C° 0.2 mm 3 mps 755 mmHg 54%
    13:00 +26°C° 0.2 mm 3 mps 754 mmHg 53%
    14:00 +26°C° 0.3 mm 3 mps 754 mmHg 54%
    15:00 +26°C° 0.3 mm 3 mps 754 mmHg 54%
    16:00 +26°C° 0.3 mm 3 mps 754 mmHg 55%
    17:00 +25°C° 0 mm 3 mps 754 mmHg 59%
    18:00 +24°C° 0 mm 2 mps 754 mmHg 63%
    19:00 +23°C° 0 mm 2 mps 755 mmHg 66%
    20:00 +21°C° 0 mm 2 mps 755 mmHg 72%
    21:00 +20°C° 0 mm 2 mps 755 mmHg 77%
    22:00 +18°C° 0 mm 2 mps 756 mmHg 83%
    23:00 +19°C° 0 mm 1 mps 756 mmHg 84%
    Show more